World > North America > United States > Illinois

Ottawa, Illinois Regional Weather

Lat: 41.35N, Lon: 88.84W
Wx Zone: ILZ019
Warning FLW WEATHER ALERT - (More Info. Click Here) Warning
Feedback

Ottawa, IL Regional Weather

Expires:201908190200;;857297
ASUS43 KLOT 190109
RWRIL 

ILLINOIS REGIONAL WEATHER ROUNDUP
NATIONAL WEATHER SERVICE CHICAGO/ROMEOVILLE IL
800 PM CDT SUN AUG 18 2019

NOTE: "FAIR" INDICATES FEW OR NO CLOUDS BELOW 12,000 FEET WITH NO
SIGNIFICANT WEATHER AND/OR OBSTRUCTIONS TO VISIBILITY.

* THESE STATIONS ARE NOT UNDER NWS QUALITY CONTROL. THEY ALSO MAY NOT
  REPORT WEATHER SUCH AS PRECIPITATION OR FOG.


ILZ005-006-012>014-019>023-190200-
NORTHEAST ILLINOIS
  
CITY           SKY/WX    TMP DP  RH WIND       PRES   REMARKS
CHICAGO-OHARE  FAIR      77  64  64 W8        29.86R                  
CHICAGO-MIDWAY FAIR      78  65  63 W7        29.86R HX  80           
AURORA         FAIR      73  66  78 W3        29.88R                  
LANSING*       FAIR      78  68  73 W5        29.87R                  
JOLIET*        FAIR      79  73  81 CALM      29.88R HX  82           
WAUKEGAN       FAIR      73  64  73 CALM      29.85R                  
DUPAGE AIRPORT FAIR      76  65  68 W3        29.87R                  
KANKAKEE*      FAIR      76  68  77 W5        29.89R                  
WHEELING       FAIR      78  63  59 W6        29.87R HX  80           
MORRIS*        FAIR      75  70  83 W5        29.88R                  
ROMEOVILLE*    FAIR      74  69  82 W8        29.88R                  
NORTHERLY ISL    N/A     78  61  55 W8          N/A  HX  80           
$$


SKY/WX - Weather  TMP - Temperature  DP - Dew Point  RH - Relative Humidity
WIND - Wind Direction/Speed PRES - Barometric Pressure VSB - Visibility
WCI - Wind Chill Index E13G22 Wind - East Wind 13 mph/Gusts of 22 mph